Time,TemperatureF,DewpointF,PressureIn,WindDirection,WindDirectionDegrees,WindSpeedMPH,WindSpeedGustMPH,Humidity,HourlyPrecipIn,Conditions,Clouds,dailyrainin,SoftwareType,DateUTC
2013-09-21 00:01:00,68.0,64.0,29.68,ESE,112,1.7,1.7,87,0.00,CLR,,0.00,WeatherDisplay:10.37,2013-09-21 04:01:00,
2013-09-21 00:02:00,68.0,64.0,29.68,ESE,112,2.3,2.3,87,0.00,CLR,,0.00,WeatherDisplay:10.37,2013-09-21 04:02:00,
2013-09-21 00:03:00,68.0,64.0,29.68,ESE,112,2.3,2.3,87,0.00,CLR,,0.00,WeatherDisplay:10.37,2013-09-21 04:03:00,
2013-09-21 00:06:00,68.0,64.0,29.68,SSW,202,2.3,2.3,87,0.00,CLR,,0.00,WeatherDisplay:10.37,2013-09-21 04:06:00,
2013-09-21 00:11:00,68.0,64.0,29.68,East,90,2.3,2.3,87,0.00,CLR,,0.00,WeatherDisplay:10.37,2013-09-21 04:11:00,
2013-09-21 00:16:00,67.6,63.6,29.68,West,270,0.0,0.0,87,0.00,CLR,,0.00,WeatherDisplay:10.37,2013-09-21 04:16:00,
2013-09-21 00:21:00,67.8,63.8,29.68,South,180,2.3,2.3,87,0.00,CLR,,0.00,WeatherDisplay:10.37,2013-09-21 04:21:00,
2013-09-21 00:26:00,67.8,63.8,29.67,ESE,112,3.5,3.5,87,0.00,CLR,,0.00,WeatherDisplay:10.37,2013-09-21 04:26:00,
2013-09-21 00:31:00,67.8,63.8,29.67,SSE,158,2.3,2.3,87,0.00,CLR,,0.00,WeatherDisplay:10.37,2013-09-21 04:31:00,
2013-09-21 00:36:00,67.6,63.6,29.67,West,270,1.1,1.1,87,0.00,CLR,,0.00,WeatherDisplay:10.37,2013-09-21 04:36:00,
2013-09-21 00:41:00,67.3,63.3,29.67,SE,135,2.3,2.3,87,0.00,CLR,,0.00,WeatherDisplay:10.37,2013-09-21 04:41:00,
2013-09-21 00:46:00,67.1,63.1,29.67,WSW,248,2.7,2.7,87,0.00,CLR,,0.00,WeatherDisplay:10.37,2013-09-21 04:46:00,
2013-09-21 00:51:00,67.1,63.4,29.67,SW,225,1.7,1.7,88,0.00,CLR,,0.00,WeatherDisplay:10.37,2013-09-21 04:51:00,
2013-09-21 00:56:00,66.9,63.2,29.67,SW,225,3.5,3.5,88,0.00,CLR,,0.00,WeatherDisplay:10.37,2013-09-21 04:56:00,
2013-09-21 01:01:00,66.9,63.2,29.66,West,270,2.7,2.7,88,0.00,CLR,,0.00,WeatherDisplay:10.37,2013-09-21 05:01:00,
2013-09-21 01:06:00,66.9,63.2,29.66,WNW,292,1.1,1.1,88,0.00,CLR,,0.00,WeatherDisplay:10.37,2013-09-21 05:06:00,
2013-09-21 01:11:00,66.9,63.2,29.66,WSW,248,2.3,2.3,88,0.00,CLR,,0.00,WeatherDisplay:10.37,2013-09-21 05:11:00,
2013-09-21 01:16:00,66.9,63.2,29.66,West,270,3.5,3.5,88,0.00,CLR,,0.00,WeatherDisplay:10.37,2013-09-21 05:16:00,
2013-09-21 01:21:00,67.3,63.6,29.66,ESE,112,1.1,2.2,88,0.00,CLR,,0.00,WeatherDisplay:10.37,2013-09-21 05:21:00,
2013-09-21 01:26:00,67.5,63.5,29.66,WSW,248,1.7,1.7,87,0.00,CLR,,0.00,WeatherDisplay:10.37,2013-09-21 05:26:00,
2013-09-21 01:31:00,67.1,63.1,29.66,SSW,202,1.1,1.1,87,0.00,CLR,,0.00,WeatherDisplay:10.37,2013-09-21 05:31:00,
2013-09-21 01:36:00,67.1,63.4,29.66,East,90,1.1,1.1,88,0.00,CLR,,0.00,WeatherDisplay:10.37,2013-09-21 05:36:00,
2013-09-21 01:41:00,67.5,63.5,29.66,SW,225,0.0,0.0,87,0.00,CLR,,0.00,WeatherDisplay:10.37,2013-09-21 05:41:00,
2013-09-21 01:46:00,67.3,63.3,29.66,South,180,2.2,2.2,87,0.00,CLR,,0.00,WeatherDisplay:10.37,2013-09-21 05:46:00,
2013-09-21 01:51:00,67.5,63.5,29.66,SE,135,0.0,0.0,87,0.00,CLR,,0.00,WeatherDisplay:10.37,2013-09-21 05:51:00,
2013-09-21 01:56:00,66.9,63.2,29.66,WSW,248,3.5,3.5,88,0.00,CLR,,0.00,WeatherDisplay:10.37,2013-09-21 05:56:00,
2013-09-21 02:01:00,66.7,63.0,29.65,SSE,158,2.7,2.7,88,0.00,CLR,,0.00,WeatherDisplay:10.37,2013-09-21 06:01:00,
2013-09-21 02:06:00,66.7,63.0,29.65,SW,225,3.5,3.5,88,0.00,CLR,,0.00,WeatherDisplay:10.37,2013-09-21 06:06:00,
2013-09-21 02:11:00,66.6,62.9,29.66,West,270,3.2,3.2,88,0.00,CLR,,0.00,WeatherDisplay:10.37,2013-09-21 06:11:00,
2013-09-21 02:16:00,66.6,62.9,29.66,South,180,2.2,2.2,88,0.00,CLR,,0.00,WeatherDisplay:10.37,2013-09-21 06:16:00,
2013-09-21 02:21:00,66.6,62.9,29.66,SW,225,2.3,2.3,88,0.00,CLR,,0.00,WeatherDisplay:10.37,2013-09-21 06:21:00,
2013-09-21 02:26:00,66.4,63.1,29.65,West,270,3.2,3.2,89,0.00,CLR,,0.00,WeatherDisplay:10.37,2013-09-21 06:26:00,
2013-09-21 02:31:00,66.4,63.1,29.65,West,270,3.5,3.5,89,0.00,CLR,,0.00,WeatherDisplay:10.37,2013-09-21 06:31:00,
2013-09-21 02:36:00,66.4,63.1,29.64,West,270,2.2,2.2,89,0.00,CLR,,0.00,WeatherDisplay:10.37,2013-09-21 06:36:00,
2013-09-21 02:41:00,66.4,63.1,29.64,WSW,248,1.1,0.0,89,0.00,CLR,,0.00,WeatherDisplay:10.37,2013-09-21 06:41:00,
2013-09-21 02:46:00,66.4,63.1,29.64,ESE,112,3.5,3.5,89,0.00,CLR,,0.00,WeatherDisplay:10.37,2013-09-21 06:46:00,
2013-09-21 02:51:00,66.4,63.1,29.64,West,270,2.3,2.7,89,0.00,CLR,,0.00,WeatherDisplay:10.37,2013-09-21 06:51:00,
2013-09-21 02:56:00,66.2,62.9,29.64,South,180,2.3,2.4,89,0.00,CLR,,0.00,WeatherDisplay:10.37,2013-09-21 06:56:00,
2013-09-21 03:01:00,66.2,62.9,29.64,SSW,202,2.7,2.7,89,0.00,SCT,,0.00,WeatherDisplay:10.37,2013-09-21 07:01:00,
2013-09-21 03:06:00,66.2,62.9,29.64,WNW,292,3.5,3.5,89,0.00,SCT,,0.00,WeatherDisplay:10.37,2013-09-21 07:06:00,
2013-09-21 03:11:00,66.2,62.9,29.63,West,270,3.5,3.5,89,0.00,SCT,,0.00,WeatherDisplay:10.37,2013-09-21 07:11:00,
2013-09-21 03:16:00,66.4,63.1,29.63,South,180,2.3,2.3,89,0.00,SCT,,0.00,WeatherDisplay:10.37,2013-09-21 07:16:00,
2013-09-21 03:21:00,66.4,63.1,29.63,South,180,4.2,4.2,89,0.00,SCT,,0.00,WeatherDisplay:10.37,2013-09-21 07:21:00,
2013-09-21 03:26:00,66.6,63.3,29.63,South,180,3.5,3.5,89,0.00,SCT,,0.00,WeatherDisplay:10.37,2013-09-21 07:26:00,
2013-09-21 03:31:00,66.6,63.3,29.63,South,180,3.5,3.5,89,0.00,SCT,,0.00,WeatherDisplay:10.37,2013-09-21 07:31:00,
2013-09-21 03:36:00,66.6,63.3,29.63,West,270,2.3,2.3,89,0.00,SCT,,0.00,WeatherDisplay:10.37,2013-09-21 07:36:00,
2013-09-21 03:41:00,66.6,63.3,29.63,WSW,248,2.3,2.3,89,0.00,SCT,,0.00,WeatherDisplay:10.37,2013-09-21 07:41:00,
2013-09-21 03:46:00,66.7,63.4,29.63,SW,225,3.5,3.5,89,0.00,SCT,,0.00,WeatherDisplay:10.37,2013-09-21 07:46:00,
2013-09-21 03:51:00,66.9,63.6,29.62,WSW,248,3.5,3.5,89,0.00,SCT,,0.00,WeatherDisplay:10.37,2013-09-21 07:51:00,
2013-09-21 03:56:00,67.1,63.7,29.62,South,180,4.6,4.6,89,0.00,SCT,,0.00,WeatherDisplay:10.37,2013-09-21 07:56:00,
2013-09-21 04:01:00,67.5,63.8,29.62,SSW,202,4.6,4.6,88,0.00,OVC,,0.00,WeatherDisplay:10.37,2013-09-21 08:01:00,
2013-09-21 04:06:00,67.3,63.6,29.62,West,270,2.3,2.3,88,0.00,OVC,,0.00,WeatherDisplay:10.37,2013-09-21 08:06:00,
2013-09-21 04:11:00,67.3,63.6,29.61,SSW,202,2.7,3.1,88,0.00,OVC,,0.00,WeatherDisplay:10.37,2013-09-21 08:11:00,
2013-09-21 04:16:00,67.5,63.8,29.61,SW,225,3.5,3.5,88,0.00,OVC,,0.00,WeatherDisplay:10.37,2013-09-21 08:16:00,
2013-09-21 04:21:00,67.5,63.8,29.61,SW,225,4.7,4.7,88,0.00,OVC,,0.00,WeatherDisplay:10.37,2013-09-21 08:21:00,
2013-09-21 04:26:00,67.5,63.8,29.61,ESE,112,4.6,4.6,88,0.00,OVC,,0.00,WeatherDisplay:10.37,2013-09-21 08:26:00,
2013-09-21 04:31:00,67.5,63.5,29.61,SW,225,5.8,5.8,87,0.00,OVC,,0.00,WeatherDisplay:10.37,2013-09-21 08:31:00,
2013-09-21 04:36:00,67.6,63.6,29.61,SW,225,4.6,4.6,87,0.00,OVC,,0.00,WeatherDisplay:10.37,2013-09-21 08:36:00,
2013-09-21 04:41:00,67.6,63.6,29.61,SSE,158,3.7,3.7,87,0.00,OVC,,0.00,WeatherDisplay:10.37,2013-09-21 08:41:00,
2013-09-21 04:46:00,67.6,63.6,29.61,SSW,202,3.5,3.5,87,0.00,OVC,,0.00,WeatherDisplay:10.37,2013-09-21 08:46:00,
2013-09-21 04:51:00,67.6,63.6,29.61,SSW,202,3.5,3.5,87,0.00,OVC,,0.00,WeatherDisplay:10.37,2013-09-21 08:51:00,
2013-09-21 04:56:00,67.5,63.5,29.61,SSW,202,4.6,4.6,87,0.00,OVC,,0.00,WeatherDisplay:10.37,2013-09-21 08:56:00,
2013-09-21 05:01:00,67.5,63.5,29.60,SSW,202,3.5,3.5,87,0.00,OVC,,0.00,WeatherDisplay:10.37,2013-09-21 09:01:00,
2013-09-21 05:06:00,67.5,63.5,29.60,SSW,202,2.3,2.8,87,0.00,OVC,,0.00,WeatherDisplay:10.37,2013-09-21 09:06:00,
2013-09-21 05:11:00,67.3,63.3,29.60,West,270,5.8,5.8,87,0.00,OVC,,0.00,WeatherDisplay:10.37,2013-09-21 09:11:00,
2013-09-21 05:16:00,67.3,63.3,29.60,SW,225,4.6,4.6,87,0.00,OVC,,0.00,WeatherDisplay:10.37,2013-09-21 09:16:00,
2013-09-21 05:21:00,67.1,63.1,29.60,SSE,158,2.7,2.7,87,0.00,OVC,,0.00,WeatherDisplay:10.37,2013-09-21 09:21:00,
2013-09-21 05:26:00,66.9,62.9,29.59,NE,45,3.5,3.5,87,0.00,OVC,,0.00,WeatherDisplay:10.37,2013-09-21 09:26:00,
2013-09-21 05:31:00,66.9,62.9,29.59,West,270,2.3,2.3,87,0.00,FEW,,0.00,WeatherDisplay:10.37,2013-09-21 09:31:00,
2013-09-21 05:36:00,66.9,62.9,29.58,North,360,1.1,1.5,87,0.00,FEW,,0.00,WeatherDisplay:10.37,2013-09-21 09:36:00,
2013-09-21 05:41:00,66.9,62.9,29.58,SW,225,3.5,3.5,87,0.00,FEW,,0.00,WeatherDisplay:10.37,2013-09-21 09:41:00,
2013-09-21 05:46:00,66.9,62.9,29.58,SSE,158,2.3,2.3,87,0.00,FEW,,0.00,WeatherDisplay:10.37,2013-09-21 09:46:00,
2013-09-21 05:51:00,66.9,62.9,29.58,SSE,158,4.6,4.6,87,0.00,FEW,,0.00,WeatherDisplay:10.37,2013-09-21 09:51:00,
2013-09-21 05:56:00,66.9,62.9,29.58,South,180,3.7,4.0,87,0.00,FEW,,0.00,WeatherDisplay:10.37,2013-09-21 09:56:00,
2013-09-21 06:01:00,66.9,62.9,29.58,SW,225,5.8,5.8,87,0.00,SCT,,0.00,WeatherDisplay:10.37,2013-09-21 10:01:00,
2013-09-21 06:06:00,67.1,63.1,29.58,SSW,202,5.8,5.8,87,0.00,SCT,,0.00,WeatherDisplay:10.37,2013-09-21 10:06:00,
2013-09-21 06:11:00,67.1,63.1,29.58,SSW,202,5.3,5.3,87,0.00,SCT,,0.00,WeatherDisplay:10.37,2013-09-21 10:11:00,
2013-09-21 06:16:00,67.1,63.1,29.58,WSW,248,5.8,5.8,87,0.00,SCT,,0.00,WeatherDisplay:10.37,2013-09-21 10:16:00,
2013-09-21 06:21:00,67.1,63.1,29.58,SSW,202,4.6,4.6,87,0.00,SCT,,0.00,WeatherDisplay:10.37,2013-09-21 10:21:00,
2013-09-21 06:26:00,67.1,63.1,29.58,SW,225,3.5,3.5,87,0.00,SCT,,0.00,WeatherDisplay:10.37,2013-09-21 10:26:00,
2013-09-21 06:31:00,67.1,63.1,29.58,WSW,248,5.3,5.3,87,0.00,SCT,,0.00,WeatherDisplay:10.37,2013-09-21 10:31:00,
2013-09-21 06:36:00,67.3,63.3,29.58,SSW,202,4.6,4.6,87,0.00,SCT,,0.00,WeatherDisplay:10.37,2013-09-21 10:36:00,
2013-09-21 06:41:00,67.3,63.0,29.58,WSW,248,5.8,5.8,86,0.00,SCT,,0.00,WeatherDisplay:10.37,2013-09-21 10:41:00,
2013-09-21 06:46:00,67.5,63.2,29.58,SSW,202,3.7,4.0,86,0.00,SCT,,0.00,WeatherDisplay:10.37,2013-09-21 10:46:00,
2013-09-21 06:51:00,67.3,63.0,29.58,NNW,338,6.9,6.9,86,0.00,SCT,,0.00,WeatherDisplay:10.37,2013-09-21 10:51:00,
2013-09-21 06:56:00,67.3,63.0,29.58,SW,225,5.3,5.3,86,0.00,SCT,,0.00,WeatherDisplay:10.37,2013-09-21 10:56:00,
2013-09-21 07:01:00,67.3,63.0,29.57,SSW,202,4.6,4.6,86,0.00,BKN,,0.00,WeatherDisplay:10.37,2013-09-21 11:01:00,
2013-09-21 07:06:00,67.3,63.0,29.57,SW,225,4.6,4.6,86,0.00,BKN,,0.00,WeatherDisplay:10.37,2013-09-21 11:06:00,
2013-09-21 07:11:00,67.3,63.0,29.57,WSW,248,3.7,4.3,86,0.00,BKN,,0.00,WeatherDisplay:10.37,2013-09-21 11:11:00,
2013-09-21 07:16:00,67.3,63.0,29.57,SSW,202,3.5,3.5,86,0.00,BKN,,0.00,WeatherDisplay:10.37,2013-09-21 11:16:00,
2013-09-21 07:21:00,67.5,62.8,29.57,West,270,8.1,8.1,85,0.00,BKN,,0.00,WeatherDisplay:10.37,2013-09-21 11:21:00,
2013-09-21 07:26:00,67.5,62.8,29.57,SW,225,4.7,4.7,85,0.00,BKN,,0.00,WeatherDisplay:10.37,2013-09-21 11:26:00,
2013-09-21 07:31:00,67.5,62.8,29.57,SW,225,5.8,5.8,85,0.00,BKN,,0.00,WeatherDisplay:10.37,2013-09-21 11:31:00,
2013-09-21 07:36:00,67.5,62.8,29.57,SW,225,5.8,5.8,85,0.00,BKN,,0.00,WeatherDisplay:10.37,2013-09-21 11:36:00,
2013-09-21 07:41:00,67.5,62.8,29.57,West,270,4.7,4.7,85,0.00,BKN,,0.00,WeatherDisplay:10.37,2013-09-21 11:41:00,
2013-09-21 07:46:00,67.6,62.9,29.57,West,270,8.1,8.1,85,0.00,BKN,,0.00,WeatherDisplay:10.37,2013-09-21 11:46:00,
2013-09-21 07:51:00,67.6,62.9,29.57,SW,225,6.3,6.3,85,0.00,BKN,,0.00,WeatherDisplay:10.37,2013-09-21 11:51:00,
2013-09-21 07:56:00,67.8,63.1,29.57,WNW,292,5.8,5.8,85,0.00,BKN,,0.00,WeatherDisplay:10.37,2013-09-21 11:56:00,
2013-09-21 08:01:00,68.0,63.0,29.57,SW,225,5.8,5.8,84,0.00,CLR,,0.00,WeatherDisplay:10.37,2013-09-21 12:01:00,
2013-09-21 08:06:00,68.0,63.0,29.57,WSW,248,5.8,5.8,84,0.00,CLR,,0.00,WeatherDisplay:10.37,2013-09-21 12:06:00,
2013-09-21 08:11:00,68.2,63.2,29.57,West,270,5.8,5.8,84,0.00,CLR,,0.00,WeatherDisplay:10.37,2013-09-21 12:11:00,
2013-09-21 08:16:00,68.5,63.1,29.57,WSW,248,4.6,4.6,83,0.00,CLR,,0.00,WeatherDisplay:10.37,2013-09-21 12:16:00,
2013-09-21 08:21:00,68.7,63.3,29.57,West,270,5.8,5.8,83,0.00,CLR,,0.00,WeatherDisplay:10.37,2013-09-21 12:21:00,
2013-09-21 08:26:00,68.9,63.5,29.56,WSW,248,5.8,5.8,83,0.00,CLR,,0.00,WeatherDisplay:10.37,2013-09-21 12:26:00,
2013-09-21 08:31:00,69.3,63.6,29.56,SW,225,4.6,4.6,82,0.00,CLR,,0.00,WeatherDisplay:10.37,2013-09-21 12:31:00,
2013-09-21 08:36:00,69.6,63.9,29.56,WSW,248,6.9,6.9,82,0.00,CLR,,0.00,WeatherDisplay:10.37,2013-09-21 12:36:00,
2013-09-21 08:41:00,69.6,63.9,29.56,SSW,202,5.8,5.8,82,0.00,CLR,,0.00,WeatherDisplay:10.37,2013-09-21 12:41:00,
2013-09-21 08:46:00,69.8,64.1,29.56,SW,225,4.7,4.7,82,0.00,CLR,,0.00,WeatherDisplay:10.37,2013-09-21 12:46:00,
2013-09-21 08:51:00,70.0,64.2,29.56,South,180,5.8,5.8,82,0.00,CLR,,0.00,WeatherDisplay:10.37,2013-09-21 12:51:00,
2013-09-21 08:56:00,70.2,64.4,29.56,SSW,202,3.5,3.5,82,0.00,CLR,,0.00,WeatherDisplay:10.37,2013-09-21 12:56:00,
2013-09-21 09:01:00,70.5,64.7,29.56,SSW,202,3.5,3.6,82,0.00,CLR,,0.00,WeatherDisplay:10.37,2013-09-21 13:01:00,
2013-09-21 09:06:00,70.7,64.9,29.56,WSW,248,5.8,5.8,82,0.00,CLR,,0.00,WeatherDisplay:10.37,2013-09-21 13:06:00,
2013-09-21 09:11:00,70.7,64.9,29.56,SSE,158,4.6,4.6,82,0.00,CLR,,0.00,WeatherDisplay:10.37,2013-09-21 13:11:00,
2013-09-21 09:17:00,71.2,65.1,29.56,SW,225,3.5,3.5,81,0.00,CLR,,0.00,WeatherDisplay:10.37,2013-09-21 13:17:00,
2013-09-21 09:22:00,71.6,65.5,29.56,WSW,248,4.6,4.6,81,0.00,CLR,,0.00,WeatherDisplay:10.37,2013-09-21 13:22:00,
2013-09-21 09:27:00,72.0,65.8,29.56,SW,225,6.8,6.8,81,0.00,CLR,,0.00,WeatherDisplay:10.37,2013-09-21 13:27:00,
2013-09-21 09:32:00,71.6,65.1,29.56,NW,315,4.6,4.6,80,0.00,BKN,,0.00,WeatherDisplay:10.37,2013-09-21 13:32:00,
2013-09-21 09:37:00,71.8,65.3,29.56,West,270,5.8,5.8,80,0.00,BKN,,0.00,WeatherDisplay:10.37,2013-09-21 13:37:00,
2013-09-21 09:42:00,72.0,65.5,29.56,West,270,4.2,4.2,80,0.00,BKN,,0.00,WeatherDisplay:10.37,2013-09-21 13:42:00,
2013-09-21 09:47:00,71.8,65.7,29.55,SW,225,4.6,4.6,81,0.00,BKN,,0.00,WeatherDisplay:10.37,2013-09-21 13:47:00,
2013-09-21 09:52:00,71.4,65.3,29.55,SW,225,6.9,6.9,81,0.00,BKN,,0.00,WeatherDisplay:10.37,2013-09-21 13:52:00,
2013-09-21 09:57:00,71.4,65.3,29.55,SW,225,3.7,3.7,81,0.00,BKN,,0.00,WeatherDisplay:10.37,2013-09-21 13:57:00,
2013-09-21 10:02:00,71.4,65.3,29.55,SW,225,4.6,4.6,81,0.00,BKN,,0.00,WeatherDisplay:10.37,2013-09-21 14:02:00,
2013-09-21 10:07:00,71.4,65.3,29.55,SSW,202,4.6,4.6,81,0.00,BKN,,0.00,WeatherDisplay:10.37,2013-09-21 14:07:00,
2013-09-21 10:12:00,71.2,65.4,29.55,WSW,248,3.5,3.5,82,0.00,BKN,,0.00,WeatherDisplay:10.37,2013-09-21 14:12:00,
2013-09-21 10:17:00,71.1,65.7,29.55,SW,225,5.8,5.8,83,0.00,BKN,,0.00,WeatherDisplay:10.37,2013-09-21 14:17:00,
2013-09-21 10:22:00,71.1,65.7,29.55,SSW,202,4.6,4.6,83,0.00,BKN,,0.00,WeatherDisplay:10.37,2013-09-21 14:22:00,
2013-09-21 10:27:00,71.1,66.0,29.55,SW,225,3.7,3.7,84,0.00,BKN,,0.00,WeatherDisplay:10.37,2013-09-21 14:27:00,
2013-09-21 10:32:00,70.9,65.8,29.55,SE,135,4.6,4.6,84,0.00,-RA,,0.00,WeatherDisplay:10.37,2013-09-21 14:32:00,
2013-09-21 10:37:00,70.7,65.6,29.54,SW,225,3.5,3.5,84,0.00,-RA,,0.00,WeatherDisplay:10.37,2013-09-21 14:37:00,
2013-09-21 10:42:00,70.9,65.8,29.54,SSW,202,2.7,2.7,84,0.00,-RA,,0.00,WeatherDisplay:10.37,2013-09-21 14:42:00,
2013-09-21 10:47:00,70.9,66.2,29.54,SW,225,2.3,2.3,85,0.00,-RA,,0.00,WeatherDisplay:10.37,2013-09-21 14:47:00,
2013-09-21 10:52:00,70.5,65.8,29.54,WSW,248,3.5,3.5,85,0.00,-RA,,0.00,WeatherDisplay:10.37,2013-09-21 14:52:00,
2013-09-21 10:57:00,70.3,65.9,29.54,SW,225,2.7,2.7,86,0.01,-RA,,0.01,WeatherDisplay:10.37,2013-09-21 14:57:00,
2013-09-21 11:02:00,70.5,66.1,29.53,SW,225,2.3,2.3,86,0.01,-RA,,0.01,WeatherDisplay:10.37,2013-09-21 15:02:00,
2013-09-21 11:07:00,70.3,65.9,29.53,SSW,202,2.3,2.3,86,0.02,-RA,,0.02,WeatherDisplay:10.37,2013-09-21 15:07:00,
2013-09-21 11:12:00,70.0,66.0,29.53,SSE,158,3.5,3.5,87,0.03,-RA,,0.03,WeatherDisplay:10.37,2013-09-21 15:12:00,
2013-09-21 11:17:00,69.8,65.8,29.53,SW,225,2.7,2.7,87,0.04,-RA,,0.04,WeatherDisplay:10.37,2013-09-21 15:17:00,
2013-09-21 11:22:00,69.4,65.7,29.53,East,90,2.3,2.3,88,0.05,-RA,,0.06,WeatherDisplay:10.37,2013-09-21 15:22:00,
2013-09-21 11:27:00,69.1,65.4,29.53,SW,225,2.3,2.3,88,0.06,-RA,,0.07,WeatherDisplay:10.37,2013-09-21 15:27:00,
2013-09-21 11:32:00,69.1,65.7,29.53,West,270,0.0,0.0,89,0.07, +RA,,0.07,WeatherDisplay:10.37,2013-09-21 15:32:00,
2013-09-21 11:37:00,68.9,65.5,29.52,WSW,248,2.7,2.7,89,0.08, +RA,,0.08,WeatherDisplay:10.37,2013-09-21 15:37:00,
2013-09-21 11:42:00,68.0,65.3,29.52,SW,225,5.8,5.8,91,0.09, +RA,,0.09,WeatherDisplay:10.37,2013-09-21 15:42:00,
2013-09-21 11:47:00,65.5,62.2,29.54,SW,225,10.4,10.4,89,0.12, +RA,,0.12,WeatherDisplay:10.37,2013-09-21 15:47:00,
2013-09-21 11:52:00,61.9,59.5,29.54,WNW,292,13.5,13.5,92,0.22, +RA,,0.22,WeatherDisplay:10.37,2013-09-21 15:52:00,
2013-09-21 11:57:00,61.3,59.3,29.54,SSW,202,16.1,16.1,93,0.31, +RA,,0.32,WeatherDisplay:10.37,2013-09-21 15:57:00,
2013-09-21 12:02:00,61.0,59.0,29.55,WNW,292,10.4,10.4,93,0.37,RA,,0.38,WeatherDisplay:10.37,2013-09-21 16:02:00,
2013-09-21 12:07:00,60.6,58.6,29.55,West,270,10.4,10.4,93,0.47,RA,,0.49,WeatherDisplay:10.37,2013-09-21 16:07:00,
2013-09-21 12:12:00,60.6,58.9,29.56,WNW,292,9.4,9.4,94,0.55,RA,,0.58,WeatherDisplay:10.37,2013-09-21 16:12:00,
2013-09-21 12:17:00,60.4,58.7,29.56,West,270,8.1,8.1,94,0.60,RA,,0.64,WeatherDisplay:10.37,2013-09-21 16:17:00,
2013-09-21 12:22:00,60.3,58.6,29.56,SSE,158,9.2,9.2,94,0.62,RA,,0.67,WeatherDisplay:10.37,2013-09-21 16:22:00,
2013-09-21 12:27:00,60.3,58.6,29.56,SSE,158,2.7,2.7,94,0.61,RA,,0.67,WeatherDisplay:10.37,2013-09-21 16:27:00,
2013-09-21 12:32:00,60.1,58.4,29.56,NNW,338,6.9,6.9,94,0.68,-RA,,0.75,WeatherDisplay:10.37,2013-09-21 16:32:00,
2013-09-21 12:37:00,60.1,58.4,29.54,WSW,248,11.5,11.5,94,0.67,-RA,,0.75,WeatherDisplay:10.37,2013-09-21 16:37:00,
2013-09-21 12:42:00,60.1,58.7,29.54,North,360,6.9,6.9,95,0.67,-RA,,0.76,WeatherDisplay:10.37,2013-09-21 16:42:00,
2013-09-21 12:47:00,60.1,58.7,29.54,West,270,12.7,12.7,95,0.64,-RA,,0.76,WeatherDisplay:10.37,2013-09-21 16:47:00,
2013-09-21 12:52:00,60.1,58.7,29.55,SW,225,10.4,10.4,95,0.59,-RA,,0.78,WeatherDisplay:10.37,2013-09-21 16:52:00,
2013-09-21 12:57:00,59.9,58.5,29.55,WSW,248,6.9,6.9,95,0.54,-RA,,0.82,WeatherDisplay:10.37,2013-09-21 16:57:00,
2013-09-21 13:02:00,59.9,58.5,29.56,NNW,338,5.3,5.3,95,0.47,RA,,0.85,WeatherDisplay:10.37,2013-09-21 17:02:00,
2013-09-21 13:07:00,59.7,58.3,29.56,East,90,6.9,6.9,95,0.49,RA,,0.87,WeatherDisplay:10.37,2013-09-21 17:07:00,
2013-09-21 13:12:00,59.5,57.8,29.56,SSE,158,8.1,8.1,94,0.32,RA,,0.88,WeatherDisplay:10.37,2013-09-21 17:12:00,
2013-09-21 13:17:00,59.5,57.8,29.56,West,270,9.4,9.4,94,0.26,RA,,0.89,WeatherDisplay:10.37,2013-09-21 17:17:00,
2013-09-21 13:22:00,59.4,57.7,29.56,NW,315,4.6,4.6,94,0.23,RA,,0.90,WeatherDisplay:10.37,2013-09-21 17:22:00,
2013-09-21 13:27:00,59.4,58.0,29.57,North,360,4.7,4.7,95,0.25,RA,,0.92,WeatherDisplay:10.37,2013-09-21 17:27:00,
2013-09-21 13:32:00,59.2,57.8,29.57,West,270,5.8,5.8,95,0.19,RA,,0.93,WeatherDisplay:10.37,2013-09-21 17:32:00,
2013-09-21 13:37:00,59.0,57.6,29.57,NNE,22,8.1,8.1,95,0.19,RA,,0.95,WeatherDisplay:10.37,2013-09-21 17:37:00,
2013-09-21 13:42:00,59.2,57.8,29.57,NNW,338,4.7,4.7,95,0.21,RA,,0.96,WeatherDisplay:10.37,2013-09-21 17:42:00,
2013-09-21 13:47:00,59.2,57.8,29.57,NW,315,3.5,3.5,95,0.22,RA,,0.98,WeatherDisplay:10.37,2013-09-21 17:47:00,
2013-09-21 13:52:00,59.4,58.0,29.57,North,360,5.3,5.3,95,0.23,RA,,1.00,WeatherDisplay:10.37,2013-09-21 17:52:00,
2013-09-21 13:57:00,59.2,57.8,29.57,WNW,292,5.8,5.8,95,0.20,RA,,1.01,WeatherDisplay:10.37,2013-09-21 17:57:00,
2013-09-21 14:02:00,59.0,57.6,29.56,SSE,158,6.9,6.9,95,0.18,-RA,,1.02,WeatherDisplay:10.37,2013-09-21 18:02:00,
2013-09-21 14:07:00,58.8,57.4,29.56,ESE,112,4.6,4.6,95,0.17,-RA,,1.03,WeatherDisplay:10.37,2013-09-21 18:07:00,
2013-09-21 14:12:00,59.0,57.6,29.57,ESE,112,3.5,3.5,95,0.15,-RA,,1.03,WeatherDisplay:10.37,2013-09-21 18:12:00,
2013-09-21 14:17:00,59.2,57.8,29.57,ESE,112,4.6,4.6,95,0.15,-RA,,1.04,WeatherDisplay:10.37,2013-09-21 18:17:00,
2013-09-21 14:22:00,59.2,57.8,29.57,ESE,112,4.6,4.6,95,0.15,-RA,,1.05,WeatherDisplay:10.37,2013-09-21 18:22:00,
2013-09-21 14:27:00,59.2,57.8,29.56,SE,135,5.8,5.8,95,0.14,-RA,,1.06,WeatherDisplay:10.37,2013-09-21 18:27:00,
2013-09-21 14:32:00,59.0,57.6,29.56,ESE,112,5.8,5.8,95,0.13,-RA,,1.06,WeatherDisplay:10.37,2013-09-21 18:32:00,
2013-09-21 14:37:00,59.0,57.6,29.57,East,90,4.7,4.7,95,0.13,-RA,,1.07,WeatherDisplay:10.37,2013-09-21 18:37:00,
2013-09-21 14:42:00,59.2,57.8,29.57,ENE,68,4.6,4.6,95,0.12,-RA,,1.08,WeatherDisplay:10.37,2013-09-21 18:42:00,
2013-09-21 14:47:00,59.4,58.3,29.56,ESE,112,4.6,4.6,96,0.11,-RA,,1.09,WeatherDisplay:10.37,2013-09-21 18:47:00,
2013-09-21 14:52:00,59.4,58.3,29.56,SE,135,5.3,5.3,96,0.10,-RA,,1.10,WeatherDisplay:10.37,2013-09-21 18:52:00,
2013-09-21 14:57:00,59.4,58.3,29.56,SSE,158,5.8,5.8,96,0.09,-RA,,1.11,WeatherDisplay:10.37,2013-09-21 18:57:00,
2013-09-21 15:02:00,59.5,58.4,29.56,SE,135,4.7,4.7,96,0.09,-RA,,1.11,WeatherDisplay:10.37,2013-09-21 19:02:00,
2013-09-21 15:07:00,59.4,58.3,29.56,SE,135,4.6,4.6,96,0.08,-RA,,1.11,WeatherDisplay:10.37,2013-09-21 19:07:00,
2013-09-21 15:12:00,59.2,58.1,29.56,ESE,112,4.6,4.6,96,0.09,-RA,,1.12,WeatherDisplay:10.37,2013-09-21 19:12:00,
2013-09-21 15:17:00,59.4,58.3,29.56,ESE,112,3.5,4.1,96,0.08,-RA,,1.12,WeatherDisplay:10.37,2013-09-21 19:17:00,
2013-09-21 15:22:00,59.4,58.3,29.55,SE,135,4.6,4.6,96,0.07,-RA,,1.12,WeatherDisplay:10.37,2013-09-21 19:22:00,
2013-09-21 15:27:00,59.4,58.3,29.55,SE,135,4.6,4.6,96,0.08,-RA,,1.13,WeatherDisplay:10.37,2013-09-21 19:27:00,
2013-09-21 15:32:00,59.4,58.3,29.55,SE,135,5.3,5.3,96,0.07,-RA,,1.13,WeatherDisplay:10.37,2013-09-21 19:32:00,
2013-09-21 15:37:00,59.4,58.0,29.55,SSE,158,8.1,8.1,95,0.06,-RA,,1.13,WeatherDisplay:10.37,2013-09-21 19:37:00,
2013-09-21 15:42:00,59.4,58.0,29.55,SE,135,5.8,5.8,95,0.05,-RA,,1.13,WeatherDisplay:10.37,2013-09-21 19:42:00,
2013-09-21 15:47:00,59.4,58.0,29.55,South,180,5.8,5.8,95,0.04,-RA,,1.13,WeatherDisplay:10.37,2013-09-21 19:47:00,
2013-09-21 15:52:00,59.4,58.0,29.55,South,180,6.9,6.9,95,0.04,-RA,,1.14,WeatherDisplay:10.37,2013-09-21 19:52:00,
2013-09-21 15:57:00,59.4,58.0,29.55,South,180,5.8,5.8,95,0.04,-RA,,1.14,WeatherDisplay:10.37,2013-09-21 19:57:00,
2013-09-21 16:02:00,59.4,58.0,29.55,ESE,112,9.2,9.2,95,0.04,-RA,,1.15,WeatherDisplay:10.37,2013-09-21 20:02:00,
2013-09-21 16:07:00,59.5,58.1,29.55,SE,135,4.6,4.6,95,0.04,-RA,,1.15,WeatherDisplay:10.37,2013-09-21 20:07:00,
2013-09-21 16:12:00,59.5,58.1,29.54,ENE,68,6.9,6.9,95,0.03,-RA,,1.15,WeatherDisplay:10.37,2013-09-21 20:12:00,
2013-09-21 16:17:00,59.5,58.1,29.54,SE,135,8.1,8.1,95,0.03,-RA,,1.15,WeatherDisplay:10.37,2013-09-21 20:17:00,
2013-09-21 16:22:00,59.5,58.1,29.54,SE,135,8.1,8.1,95,0.03,-RA,,1.15,WeatherDisplay:10.37,2013-09-21 20:22:00,
2013-09-21 16:27:00,59.7,58.6,29.55,WNW,292,3.5,3.5,96,0.03,-RA,,1.16,WeatherDisplay:10.37,2013-09-21 20:27:00,
2013-09-21 16:32:00,60.1,59.0,29.55,ESE,112,2.3,2.3,96,0.03,-RA,,1.16,WeatherDisplay:10.37,2013-09-21 20:32:00,
2013-09-21 16:37:00,59.7,58.6,29.54,East,90,3.5,3.5,96,0.04,-RA,,1.17,WeatherDisplay:10.37,2013-09-21 20:37:00,
2013-09-21 16:42:00,59.5,58.4,29.54,SW,225,3.5,3.5,96,0.04,-RA,,1.17,WeatherDisplay:10.37,2013-09-21 20:42:00,
2013-09-21 16:47:00,59.7,58.6,29.55,WSW,248,1.7,1.7,96,0.04,-RA,,1.17,WeatherDisplay:10.37,2013-09-21 20:47:00,
2013-09-21 16:52:00,59.7,58.6,29.55,SSW,202,2.7,2.7,96,0.03,-RA,,1.17,WeatherDisplay:10.37,2013-09-21 20:52:00,
2013-09-21 16:57:00,59.7,58.6,29.55,WSW,248,1.7,1.7,96,0.03,-RA,,1.17,WeatherDisplay:10.37,2013-09-21 20:57:00,
2013-09-21 17:02:00,59.7,58.6,29.55,West,270,2.3,2.3,96,0.02,OVC,,1.17,WeatherDisplay:10.37,2013-09-21 21:02:00,
2013-09-21 17:07:00,59.9,58.8,29.55,ESE,112,2.3,2.3,96,0.02,OVC,,1.17,WeatherDisplay:10.37,2013-09-21 21:07:00,
2013-09-21 17:12:00,59.9,58.8,29.55,WSW,248,2.3,2.3,96,0.02,OVC,,1.17,WeatherDisplay:10.37,2013-09-21 21:12:00,
2013-09-21 17:17:00,59.9,58.8,29.55,SSW,202,0.0,0.0,96,0.02,OVC,,1.17,WeatherDisplay:10.37,2013-09-21 21:17:00,
2013-09-21 17:22:00,59.9,58.8,29.55,West,270,2.3,2.3,96,0.02,OVC,,1.17,WeatherDisplay:10.37,2013-09-21 21:22:00,
2013-09-21 17:27:00,59.9,58.8,29.55,WSW,248,2.7,2.7,96,0.01,OVC,,1.17,WeatherDisplay:10.37,2013-09-21 21:27:00,
2013-09-21 17:32:00,60.3,59.2,29.55,WSW,248,3.5,3.5,96,0.01,OVC,,1.17,WeatherDisplay:10.37,2013-09-21 21:32:00,
2013-09-21 17:37:00,60.8,59.7,29.55,West,270,2.3,2.3,96,0.01,OVC,,1.17,WeatherDisplay:10.37,2013-09-21 21:37:00,
2013-09-21 17:42:00,60.8,59.4,29.55,SW,225,3.5,3.5,95,0.00,OVC,,1.17,WeatherDisplay:10.37,2013-09-21 21:42:00,
2013-09-21 17:47:00,61.3,59.9,29.55,WSW,248,2.7,2.7,95,0.00,OVC,,1.17,WeatherDisplay:10.37,2013-09-21 21:47:00,
2013-09-21 17:52:00,61.2,59.8,29.55,SW,225,3.5,3.5,95,0.00,OVC,,1.17,WeatherDisplay:10.37,2013-09-21 21:52:00,
2013-09-21 17:57:00,60.8,59.1,29.55,SW,225,4.7,4.7,94,0.00,OVC,,1.17,WeatherDisplay:10.37,2013-09-21 21:57:00,
2013-09-21 18:02:00,60.4,58.7,29.56,SW,225,4.6,4.6,94,0.00,-RA,,1.17,WeatherDisplay:10.37,2013-09-21 22:02:00,
2013-09-21 18:07:00,60.1,58.4,29.56,SW,225,4.6,4.6,94,0.00,-RA,,1.17,WeatherDisplay:10.37,2013-09-21 22:07:00,
2013-09-21 18:12:00,59.9,58.2,29.56,West,270,4.6,4.6,94,0.01,-RA,,1.18,WeatherDisplay:10.37,2013-09-21 22:12:00,
2013-09-21 18:17:00,59.7,58.0,29.56,SW,225,4.6,4.6,94,0.01,-RA,,1.18,WeatherDisplay:10.37,2013-09-21 22:17:00,
2013-09-21 18:22:00,59.7,58.0,29.56,SW,225,3.5,3.5,94,0.01,-RA,,1.18,WeatherDisplay:10.37,2013-09-21 22:22:00,
2013-09-21 18:27:00,59.7,58.0,29.57,SW,225,4.6,4.6,94,0.01,-RA,,1.18,WeatherDisplay:10.37,2013-09-21 22:27:00,
2013-09-21 18:32:00,59.4,57.7,29.57,WSW,248,5.8,5.8,94,0.02,-RA,,1.19,WeatherDisplay:10.37,2013-09-21 22:32:00,
2013-09-21 18:37:00,59.2,57.5,29.57,West,270,5.8,5.8,94,0.02,-RA,,1.19,WeatherDisplay:10.37,2013-09-21 22:37:00,
2013-09-21 18:42:00,59.2,57.5,29.57,SW,225,5.8,5.8,94,0.02,-RA,,1.19,WeatherDisplay:10.37,2013-09-21 22:42:00,
2013-09-21 18:47:00,59.2,57.5,29.57,West,270,3.5,3.5,94,0.03,-RA,,1.20,WeatherDisplay:10.37,2013-09-21 22:47:00,
2013-09-21 18:52:00,59.2,57.5,29.57,SSW,202,2.3,2.3,94,0.03,-RA,,1.21,WeatherDisplay:10.37,2013-09-21 22:52:00,
2013-09-21 18:57:00,59.2,57.5,29.57,WSW,248,1.7,1.7,94,0.04,-RA,,1.21,WeatherDisplay:10.37,2013-09-21 22:57:00,
2013-09-21 19:03:00,59.0,57.3,29.57,South,180,1.7,1.7,94,0.04,-RA,,1.21,WeatherDisplay:10.37,2013-09-21 23:03:00,
2013-09-21 19:08:00,59.0,57.3,29.57,SW,225,3.5,3.5,94,0.04,-RA,,1.21,WeatherDisplay:10.37,2013-09-21 23:08:00,
2013-09-21 19:13:00,59.0,57.3,29.57,SW,225,2.3,2.3,94,0.03,-RA,,1.21,WeatherDisplay:10.37,2013-09-21 23:13:00,
2013-09-21 19:18:00,59.0,57.3,29.57,SSW,202,1.1,1.1,94,0.03,-RA,,1.21,WeatherDisplay:10.37,2013-09-21 23:18:00,
2013-09-21 19:23:00,59.0,57.3,29.57,WSW,248,0.0,0.0,94,0.03,-RA,,1.21,WeatherDisplay:10.37,2013-09-21 23:23:00,
2013-09-21 19:28:00,59.0,57.3,29.57,SW,225,2.3,2.3,94,0.03,-RA,,1.21,WeatherDisplay:10.37,2013-09-21 23:28:00,
2013-09-21 19:33:00,59.0,57.3,29.57,SSW,202,2.3,2.3,94,0.02,OVC,,1.21,WeatherDisplay:10.37,2013-09-21 23:33:00,
2013-09-21 19:38:00,59.0,57.3,29.58,SW,225,1.1,1.4,94,0.02,OVC,,1.21,WeatherDisplay:10.37,2013-09-21 23:38:00,
2013-09-21 19:43:00,59.0,57.3,29.58,SW,225,1.7,1.7,94,0.02,OVC,,1.21,WeatherDisplay:10.37,2013-09-21 23:43:00,
2013-09-21 19:48:00,59.0,57.6,29.57,SW,225,1.1,1.1,95,0.01,OVC,,1.21,WeatherDisplay:10.37,2013-09-21 23:48:00,
2013-09-21 19:53:00,59.0,57.6,29.57,SW,225,2.3,2.3,95,0.00,OVC,,1.21,WeatherDisplay:10.37,2013-09-21 23:53:00,
2013-09-21 19:58:00,59.0,57.6,29.57,SW,225,1.7,1.7,95,0.00,OVC,,1.21,WeatherDisplay:10.37,2013-09-21 23:58:00,
2013-09-21 20:03:00,59.0,57.6,29.58,SSW,202,0.0,0.0,95,0.00,OVC,,1.21,WeatherDisplay:10.37,2013-09-22 00:03:00,
2013-09-21 20:08:00,58.8,57.4,29.58,SSW,202,2.3,2.3,95,0.00,OVC,,1.21,WeatherDisplay:10.37,2013-09-22 00:08:00,
2013-09-21 20:13:00,58.8,57.4,29.58,SW,225,0.0,0.0,95,0.00,OVC,,1.21,WeatherDisplay:10.37,2013-09-22 00:13:00,
2013-09-21 20:18:00,58.8,57.4,29.58,SW,225,2.3,2.6,95,0.00,OVC,,1.21,WeatherDisplay:10.37,2013-09-22 00:18:00,
2013-09-21 20:23:00,58.8,57.4,29.59,SW,225,1.1,0.0,95,0.00,OVC,,1.21,WeatherDisplay:10.37,2013-09-22 00:23:00,
2013-09-21 20:28:00,58.8,57.4,29.59,SW,225,2.7,2.7,95,0.00,OVC,,1.21,WeatherDisplay:10.37,2013-09-22 00:28:00,
2013-09-21 20:33:00,58.8,57.4,29.59,WSW,248,2.3,2.3,95,0.00,OVC,,1.21,WeatherDisplay:10.37,2013-09-22 00:33:00,
2013-09-21 20:38:00,58.8,57.4,29.59,SW,225,0.0,0.0,95,0.00,OVC,,1.21,WeatherDisplay:10.37,2013-09-22 00:38:00,
2013-09-21 20:43:00,58.8,57.4,29.59,West,270,0.0,0.0,95,0.00,OVC,,1.21,WeatherDisplay:10.37,2013-09-22 00:43:00,
2013-09-21 20:48:00,58.6,57.2,29.59,SW,225,0.0,0.0,95,0.00,OVC,,1.21,WeatherDisplay:10.37,2013-09-22 00:48:00,
2013-09-21 20:53:00,58.6,57.2,29.59,SW,225,3.2,3.2,95,0.00,OVC,,1.21,WeatherDisplay:10.37,2013-09-22 00:53:00,
2013-09-21 20:58:00,58.6,57.2,29.59,SW,225,2.3,2.3,95,0.00,OVC,,1.21,WeatherDisplay:10.37,2013-09-22 00:58:00,
2013-09-21 21:03:00,58.6,57.2,29.60,SW,225,2.2,2.2,95,0.00,OVC,,1.21,WeatherDisplay:10.37,2013-09-22 01:03:00,
2013-09-21 21:08:00,58.6,57.2,29.60,SW,225,2.3,2.3,95,0.00,OVC,,1.21,WeatherDisplay:10.37,2013-09-22 01:08:00,
2013-09-21 21:13:00,58.6,57.2,29.60,WSW,248,0.0,0.0,95,0.00,OVC,,1.21,WeatherDisplay:10.37,2013-09-22 01:13:00,
2013-09-21 21:18:00,58.5,57.1,29.60,SW,225,2.3,2.3,95,0.00,OVC,,1.21,WeatherDisplay:10.37,2013-09-22 01:18:00,
2013-09-21 21:23:00,58.5,57.1,29.60,SW,225,2.3,2.3,95,0.00,OVC,,1.21,WeatherDisplay:10.37,2013-09-22 01:23:00,
2013-09-21 21:28:00,58.3,56.9,29.60,SW,225,2.3,2.5,95,0.00,OVC,,1.21,WeatherDisplay:10.37,2013-09-22 01:28:00,
2013-09-21 21:33:00,58.1,56.7,29.60,SW,225,2.3,2.3,95,0.00,OVC,,1.21,WeatherDisplay:10.37,2013-09-22 01:33:00,
2013-09-21 21:38:00,58.1,56.7,29.60,SW,225,3.5,3.5,95,0.00,OVC,,1.21,WeatherDisplay:10.37,2013-09-22 01:38:00,
2013-09-21 21:43:00,58.1,56.7,29.60,SW,225,2.3,2.3,95,0.00,OVC,,1.21,WeatherDisplay:10.37,2013-09-22 01:43:00,
2013-09-21 21:48:00,57.9,56.5,29.60,SSW,202,2.3,2.3,95,0.00,OVC,,1.21,WeatherDisplay:10.37,2013-09-22 01:48:00,
2013-09-21 21:53:00,57.9,56.5,29.60,SSW,202,2.3,2.3,95,0.00,OVC,,1.21,WeatherDisplay:10.37,2013-09-22 01:53:00,
2013-09-21 21:58:00,57.9,56.5,29.60,SW,225,2.2,2.2,95,0.00,OVC,,1.21,WeatherDisplay:10.37,2013-09-22 01:58:00,
2013-09-21 22:03:00,57.7,56.3,29.60,WSW,248,2.2,2.2,95,0.00,BKN,,1.21,WeatherDisplay:10.37,2013-09-22 02:03:00,
2013-09-21 22:08:00,57.6,56.2,29.60,SSW,202,2.3,2.3,95,0.00,BKN,,1.21,WeatherDisplay:10.37,2013-09-22 02:08:00,
2013-09-21 22:13:00,57.6,56.2,29.61,SSW,202,2.3,2.5,95,0.00,BKN,,1.21,WeatherDisplay:10.37,2013-09-22 02:13:00,
2013-09-21 22:18:00,57.7,56.3,29.61,SSW,202,3.5,3.5,95,0.00,BKN,,1.21,WeatherDisplay:10.37,2013-09-22 02:18:00,
2013-09-21 22:23:00,58.1,56.7,29.61,SW,225,3.5,3.5,95,0.00,BKN,,1.21,WeatherDisplay:10.37,2013-09-22 02:23:00,
2013-09-21 22:28:00,58.1,56.7,29.61,SW,225,3.5,3.5,95,0.00,BKN,,1.21,WeatherDisplay:10.37,2013-09-22 02:28:00,
2013-09-21 22:33:00,58.1,56.7,29.61,SW,225,3.5,3.5,95,0.00,BKN,,1.21,WeatherDisplay:10.37,2013-09-22 02:33:00,
2013-09-21 22:38:00,58.3,56.9,29.61,West,270,3.7,3.7,95,0.00,BKN,,1.21,WeatherDisplay:10.37,2013-09-22 02:38:00,
2013-09-21 22:43:00,58.3,56.9,29.61,WSW,248,4.6,4.6,95,0.00,BKN,,1.21,WeatherDisplay:10.37,2013-09-22 02:43:00,
2013-09-21 22:48:00,58.5,57.1,29.61,WSW,248,4.7,4.7,95,0.00,BKN,,1.21,WeatherDisplay:10.37,2013-09-22 02:48:00,
2013-09-21 22:53:00,58.6,57.2,29.61,West,270,6.3,6.3,95,0.00,BKN,,1.21,WeatherDisplay:10.37,2013-09-22 02:53:00,
2013-09-21 22:58:00,58.6,57.2,29.61,WSW,248,6.9,6.9,95,0.00,BKN,,1.21,WeatherDisplay:10.37,2013-09-22 02:58:00,
2013-09-21 23:03:00,58.6,57.2,29.62,SW,225,5.8,5.8,95,0.00,SCT,,1.21,WeatherDisplay:10.37,2013-09-22 03:03:00,
2013-09-21 23:08:00,58.6,57.2,29.62,WSW,248,6.9,6.9,95,0.00,SCT,,1.21,WeatherDisplay:10.37,2013-09-22 03:08:00,
2013-09-21 23:13:00,58.6,57.2,29.62,WSW,248,5.8,5.8,95,0.00,SCT,,1.21,WeatherDisplay:10.37,2013-09-22 03:13:00,
2013-09-21 23:18:00,58.5,57.1,29.62,WSW,248,5.8,5.8,95,0.00,SCT,,1.21,WeatherDisplay:10.37,2013-09-22 03:18:00,
2013-09-21 23:23:00,58.3,56.9,29.62,WSW,248,5.8,5.8,95,0.00,SCT,,1.21,WeatherDisplay:10.37,2013-09-22 03:23:00,
2013-09-21 23:28:00,58.1,56.7,29.62,WSW,248,5.8,5.8,95,0.00,SCT,,1.21,WeatherDisplay:10.37,2013-09-22 03:28:00,
2013-09-21 23:33:00,58.1,56.7,29.62,WSW,248,3.5,3.5,95,0.00,SCT,,1.21,WeatherDisplay:10.37,2013-09-22 03:33:00,
2013-09-21 23:38:00,57.9,56.5,29.62,West,270,3.5,3.5,95,0.00,SCT,,1.21,WeatherDisplay:10.37,2013-09-22 03:38:00,
2013-09-21 23:43:00,57.7,56.3,29.62,SW,225,2.7,3.0,95,0.00,SCT,,1.21,WeatherDisplay:10.37,2013-09-22 03:43:00,
2013-09-21 23:48:00,57.6,56.2,29.63,WSW,248,3.5,3.5,95,0.00,SCT,,1.21,WeatherDisplay:10.37,2013-09-22 03:48:00,
2013-09-21 23:53:00,57.6,55.9,29.63,WSW,248,3.2,3.2,94,0.00,SCT,,1.21,WeatherDisplay:10.37,2013-09-22 03:53:00,
2013-09-21 23:58:00,57.6,55.9,29.63,West,270,3.5,3.5,94,0.00,SCT,,1.21,WeatherDisplay:10.37,2013-09-22 03:58:00,